Location: Triton
(47.6048°N, 122.9899°W)
Time: 15:44:26
(UTC+00:00)

ARIANE 6 FM1 Upper Stage - Pass Details

Date: 14 February 2026
Orbit: 523 x 607 km, 62.0° (Epoch: 8 March)

Event Time Altitude Azimuth Distance (km) Brightness Sun altitude
Rises 03:14:37 0° 320° (NW) 2,662 6.7 -17.7°
Reaches altitude 10° 03:16:56 10° 329° (NNW) 1,769 5.6 -18.1°
Maximum altitude 03:20:38 37° 38° (NE) 827 3.2 -18.7°
Enters shadow 03:20:45 37° 42° (NE) 829 3.2 -18.8°
